contact:dominique.lefevre@mio.osupytheas.fr, maurice.libes@osupytheas.fr, didier.mallarino@osupytheas.fr
Project:EMSO http://www.emso-fr.org/EMSO-France
Depth: 2436.0 m
Title:EMSO Ligure Ouest : Data MII capteur MICROCAT
DateTime_Computer,Latitude,Longitude,Temperature,Conductivity,Pressure,DateTime_Instrument
DateTime_Computer,Latitude,Longitude,degC,S m-1,dbar,DateTime_Instrument
2021-03-01T00:00:46Z,42.805,6.029,13.2996,4.59999,2469.97,2021-3-01T02:01:51Z
2021-03-01T00:03:49Z,42.805,6.029,13.2993,4.59998,2470.017,2021-3-01T02:04:54Z
2021-03-01T00:06:52Z,42.805,6.029,13.2991,4.59997,2470.007,2021-3-01T02:07:57Z
2021-03-01T00:09:55Z,42.805,6.029,13.2993,4.60003,2470.03,2021-3-01T02:11:00Z
2021-03-01T00:12:58Z,42.805,6.029,13.2991,4.59996,2469.979,2021-3-01T02:14:03Z
2021-03-01T00:16:01Z,42.805,6.029,13.2990,4.59997,2470.017,2021-3-01T02:17:06Z
2021-03-01T00:19:04Z,42.805,6.029,13.2990,4.59999,2470.03,2021-3-01T02:20:09Z
2021-03-01T00:22:08Z,42.805,6.029,13.2995,4.59999,2470.017,2021-3-01T02:23:13Z
2021-03-01T00:25:11Z,42.805,6.029,13.2992,4.59999,2469.993,2021-3-01T02:26:16Z
2021-03-01T00:28:14Z,42.805,6.029,13.2993,4.59997,2469.984,2021-3-01T02:29:19Z
2021-03-01T00:31:17Z,42.805,6.029,13.2994,4.59998,2469.97,2021-3-01T02:32:22Z
2021-03-01T00:34:20Z,42.805,6.029,13.2994,4.59999,2469.97,2021-3-01T02:35:25Z
2021-03-01T00:37:23Z,42.805,6.029,13.2993,4.59997,2469.993,2021-3-01T02:38:28Z
2021-03-01T00:40:26Z,42.805,6.029,13.2995,4.59998,2469.97,2021-3-01T02:41:31Z
2021-03-01T00:43:29Z,42.805,6.029,13.2994,4.59996,2470.007,2021-3-01T02:44:34Z
2021-03-01T00:46:33Z,42.805,6.029,13.2991,4.59998,2469.97,2021-3-01T02:47:38Z
2021-03-01T00:49:36Z,42.805,6.029,13.2993,4.60002,2470.007,2021-3-01T02:50:41Z
2021-03-01T00:52:39Z,42.805,6.029,13.2993,4.60000,2470.007,2021-3-01T02:53:44Z
2021-03-01T00:55:42Z,42.805,6.029,13.2991,4.59999,2470.007,2021-3-01T02:56:47Z
2021-03-01T00:58:45Z,42.805,6.029,13.2990,4.59998,2469.97,2021-3-01T02:59:50Z
2021-03-01T01:01:48Z,42.805,6.029,13.2992,4.59999,2469.97,2021-3-01T03:02:53Z
2021-03-01T01:04:51Z,42.805,6.029,13.2996,4.60005,2469.97,2021-3-01T03:05:56Z
2021-03-01T01:07:54Z,42.805,6.029,13.2991,4.59999,2469.947,2021-3-01T03:08:59Z
2021-03-01T01:10:57Z,42.805,6.029,13.2993,4.60000,2469.97,2021-3-01T03:12:02Z
2021-03-01T01:14:01Z,42.805,6.029,13.2995,4.59999,2469.96,2021-3-01T03:15:06Z
2021-03-01T01:17:04Z,42.805,6.029,13.2996,4.60002,2469.96,2021-3-01T03:18:09Z
2021-03-01T01:20:07Z,42.805,6.029,13.2994,4.59999,2469.947,2021-3-01T03:21:12Z
2021-03-01T01:23:10Z,42.805,6.029,13.2991,4.60001,2469.96,2021-3-01T03:24:15Z
2021-03-01T01:26:13Z,42.805,6.029,13.2996,4.59996,2469.984,2021-3-01T03:27:18Z
2021-03-01T01:29:16Z,42.805,6.029,13.2996,4.60001,2469.96,2021-3-01T03:30:21Z
2021-03-01T01:32:19Z,42.805,6.029,13.2995,4.59999,2469.97,2021-3-01T03:33:24Z
2021-03-01T01:35:22Z,42.805,6.029,13.2997,4.59999,2469.984,2021-3-01T03:36:27Z
2021-03-01T01:38:26Z,42.805,6.029,13.2996,4.59999,2469.947,2021-3-01T03:39:31Z
2021-03-01T01:41:29Z,42.805,6.029,13.2990,4.60001,2469.96,2021-3-01T03:42:34Z
2021-03-01T01:44:32Z,42.805,6.029,13.2992,4.59999,2469.97,2021-3-01T03:45:37Z
2021-03-01T01:47:35Z,42.805,6.029,13.2989,4.60001,2469.947,2021-3-01T03:48:40Z
2021-03-01T01:50:38Z,42.805,6.029,13.2995,4.59998,2469.96,2021-3-01T03:51:43Z
2021-03-01T01:53:41Z,42.805,6.029,13.2990,4.59999,2469.97,2021-3-01T03:54:46Z
2021-03-01T01:56:44Z,42.805,6.029,13.2991,4.59998,2469.923,2021-3-01T03:57:49Z
2021-03-01T01:59:47Z,42.805,6.029,13.2993,4.60002,2469.947,2021-3-01T04:00:52Z
2021-03-01T02:02:50Z,42.805,6.029,13.2992,4.60001,2469.937,2021-3-01T04:03:55Z
2021-03-01T02:05:54Z,42.805,6.029,13.2991,4.60001,2469.923,2021-3-01T04:06:59Z
2021-03-01T02:08:57Z,42.805,6.029,13.2993,4.60001,2469.947,2021-3-01T04:10:02Z
2021-03-01T02:12:00Z,42.805,6.029,13.2991,4.59997,2469.96,2021-3-01T04:13:05Z
2021-03-01T02:15:03Z,42.805,6.029,13.2995,4.60002,2469.923,2021-3-01T04:16:08Z
2021-03-01T02:18:06Z,42.805,6.029,13.2990,4.59999,2469.923,2021-3-01T04:19:11Z
2021-03-01T02:21:09Z,42.805,6.029,13.2993,4.59998,2469.96,2021-3-01T04:22:14Z
2021-03-01T02:24:12Z,42.805,6.029,13.2997,4.60011,2469.947,2021-3-01T04:25:17Z
2021-03-01T02:27:15Z,42.805,6.029,13.2998,4.60001,2469.96,2021-3-01T04:28:20Z
2021-03-01T02:30:19Z,42.805,6.029,13.2992,4.59998,2469.923,2021-3-01T04:31:24Z
2021-03-01T02:33:22Z,42.805,6.029,13.2997,4.60000,2469.914,2021-3-01T04:34:27Z
2021-03-01T02:36:25Z,42.805,6.029,13.2991,4.59999,2469.937,2021-3-01T04:37:30Z
2021-03-01T02:39:28Z,42.805,6.029,13.2996,4.59998,2469.97,2021-3-01T04:40:33Z
2021-03-01T02:42:31Z,42.805,6.029,13.2993,4.60002,2469.96,2021-3-01T04:43:36Z
2021-03-01T02:45:34Z,42.805,6.029,13.2993,4.59999,2469.947,2021-3-01T04:46:39Z
2021-03-01T02:48:37Z,42.805,6.029,13.2994,4.60001,2469.914,2021-3-01T04:49:42Z
2021-03-01T02:51:40Z,42.805,6.029,13.2994,4.59997,2469.876,2021-3-01T04:52:45Z
2021-03-01T02:54:44Z,42.805,6.029,13.2996,4.60000,2469.923,2021-3-01T04:55:49Z
2021-03-01T02:57:47Z,42.805,6.029,13.2995,4.60001,2469.937,2021-3-01T04:58:52Z
2021-03-01T03:00:50Z,42.805,6.029,13.2993,4.59999,2469.947,2021-3-01T05:01:55Z
2021-03-01T03:03:53Z,42.805,6.029,13.2999,4.59999,2469.923,2021-3-01T05:04:58Z
2021-03-01T03:06:56Z,42.805,6.029,13.2993,4.59999,2469.947,2021-3-01T05:08:01Z
2021-03-01T03:09:59Z,42.805,6.029,13.2995,4.59999,2469.947,2021-3-01T05:11:04Z
2021-03-01T03:13:02Z,42.805,6.029,13.2990,4.59999,2469.937,2021-3-01T05:14:07Z
2021-03-01T03:16:05Z,42.805,6.029,13.2994,4.60003,2469.9,2021-3-01T05:17:10Z
2021-03-01T03:19:08Z,42.805,6.029,13.2990,4.59999,2469.9,2021-3-01T05:20:13Z
2021-03-01T03:22:12Z,42.805,6.029,13.2995,4.60003,2469.923,2021-3-01T05:23:17Z
2021-03-01T03:25:15Z,42.805,6.029,13.2996,4.60006,2469.914,2021-3-01T05:26:20Z
2021-03-01T03:28:18Z,42.805,6.029,13.2992,4.59999,2469.923,2021-3-01T05:29:23Z
2021-03-01T03:31:21Z,42.805,6.029,13.2993,4.59999,2469.914,2021-3-01T05:32:26Z
2021-03-01T03:34:24Z,42.805,6.029,13.2992,4.60001,2469.937,2021-3-01T05:35:29Z
2021-03-01T03:37:27Z,42.805,6.029,13.2999,4.60000,2469.914,2021-3-01T05:38:32Z
2021-03-01T03:40:30Z,42.805,6.029,13.2991,4.60009,2469.937,2021-3-01T05:41:35Z
2021-03-01T03:43:33Z,42.805,6.029,13.2996,4.60002,2469.914,2021-3-01T05:44:38Z
2021-03-01T03:46:37Z,42.805,6.029,13.2990,4.59999,2469.923,2021-3-01T05:47:42Z
2021-03-01T03:49:40Z,42.805,6.029,13.2991,4.60003,2469.937,2021-3-01T05:50:45Z
2021-03-01T03:52:43Z,42.805,6.029,13.2991,4.60000,2469.923,2021-3-01T05:53:48Z
2021-03-01T03:55:46Z,42.805,6.029,13.2996,4.60003,2469.923,2021-3-01T05:56:51Z
2021-03-01T03:58:49Z,42.805,6.029,13.2991,4.60001,2469.984,2021-3-01T05:59:54Z
2021-03-01T04:01:52Z,42.805,6.029,13.3001,4.60008,2469.947,2021-3-01T06:02:57Z
2021-03-01T04:04:55Z,42.805,6.029,13.2997,4.60007,2469.947,2021-3-01T06:06:00Z
2021-03-01T04:07:58Z,42.805,6.029,13.2996,4.60003,2469.923,2021-3-01T06:09:03Z
2021-03-01T04:11:01Z,42.805,6.029,13.2999,4.60008,2469.96,2021-3-01T06:12:06Z
2021-03-01T04:14:05Z,42.805,6.029,13.2993,4.59999,2469.909,2021-3-01T06:15:10Z
2021-03-01T04:17:08Z,42.805,6.029,13.2991,4.60001,2469.97,2021-3-01T06:18:13Z
2021-03-01T04:20:11Z,42.805,6.029,13.2995,4.60001,2469.947,2021-3-01T06:21:16Z
2021-03-01T04:23:14Z,42.805,6.029,13.2998,4.59999,2469.984,2021-3-01T06:24:19Z
2021-03-01T04:26:17Z,42.805,6.029,13.2995,4.60001,2469.97,2021-3-01T06:27:22Z
2021-03-01T04:29:20Z,42.805,6.029,13.3000,4.60000,2469.937,2021-3-01T06:30:25Z
2021-03-01T04:32:23Z,42.805,6.029,13.2993,4.60001,2469.984,2021-3-01T06:33:28Z
2021-03-01T04:35:26Z,42.805,6.029,13.2999,4.60005,2469.97,2021-3-01T06:36:31Z
2021-03-01T04:38:30Z,42.805,6.029,13.2996,4.60003,2469.96,2021-3-01T06:39:35Z
2021-03-01T04:41:33Z,42.805,6.029,13.2990,4.60003,2469.97,2021-3-01T06:42:38Z
2021-03-01T04:44:36Z,42.805,6.029,13.2998,4.60001,2469.97,2021-3-01T06:45:41Z
2021-03-01T04:47:39Z,42.805,6.029,13.2991,4.60001,2470.007,2021-3-01T06:48:44Z
2021-03-01T04:50:42Z,42.805,6.029,13.2998,4.60003,2469.97,2021-3-01T06:51:47Z
2021-03-01T04:53:45Z,42.805,6.029,13.2993,4.60001,2470.007,2021-3-01T06:54:50Z
2021-03-01T04:56:48Z,42.805,6.029,13.2998,4.60002,2469.984,2021-3-01T06:57:53Z
2021-03-01T04:59:51Z,42.805,6.029,13.2995,4.60003,2469.97,2021-3-01T07:00:56Z
2021-03-01T05:02:54Z,42.805,6.029,13.2996,4.60004,2469.993,2021-3-01T07:03:59Z
2021-03-01T05:05:58Z,42.805,6.029,13.2994,4.60001,2469.993,2021-3-01T07:07:03Z
2021-03-01T05:09:01Z,42.805,6.029,13.2999,4.60003,2470.04,2021-3-01T07:10:06Z
2021-03-01T05:12:04Z,42.805,6.029,13.2996,4.60003,2469.993,2021-3-01T07:13:09Z
2021-03-01T05:15:07Z,42.805,6.029,13.2994,4.60003,2469.97,2021-3-01T07:16:12Z
2021-03-01T05:18:10Z,42.805,6.029,13.2993,4.60008,2470.017,2021-3-01T07:19:15Z
2021-03-01T05:21:13Z,42.805,6.029,13.2998,4.60003,2470.03,2021-3-01T07:22:18Z
2021-03-01T05:24:16Z,42.805,6.029,13.2996,4.60003,2469.993,2021-3-01T07:25:21Z
2021-03-01T05:27:19Z,42.805,6.029,13.2992,4.60001,2470.053,2021-3-01T07:28:24Z
2021-03-01T05:30:23Z,42.805,6.029,13.2996,4.60006,2470.017,2021-3-01T07:31:28Z
2021-03-01T05:33:26Z,42.805,6.029,13.2993,4.60000,2470.063,2021-3-01T07:34:31Z
2021-03-01T05:36:29Z,42.805,6.029,13.2996,4.60000,2470.077,2021-3-01T07:37:34Z
2021-03-01T05:39:32Z,42.805,6.029,13.2993,4.59999,2470.063,2021-3-01T07:40:37Z
2021-03-01T05:42:35Z,42.805,6.029,13.2990,4.60001,2470.017,2021-3-01T07:43:40Z
2021-03-01T05:45:38Z,42.805,6.029,13.2991,4.60000,2470.04,2021-3-01T07:46:43Z
2021-03-01T05:48:41Z,42.805,6.029,13.2996,4.60000,2470.053,2021-3-01T07:49:46Z
2021-03-01T05:51:44Z,42.805,6.029,13.2993,4.59999,2470.04,2021-3-01T07:52:49Z
2021-03-01T05:54:47Z,42.805,6.029,13.2992,4.59999,2470.063,2021-3-01T07:55:52Z
2021-03-01T05:57:51Z,42.805,6.029,13.2992,4.60003,2470.1,2021-3-01T07:58:56Z
2021-03-01T06:00:54Z,42.805,6.029,13.2999,4.60005,2470.1,2021-3-01T08:01:59Z
2021-03-01T06:03:57Z,42.805,6.029,13.2993,4.60003,2470.1,2021-3-01T08:05:02Z
2021-03-01T06:07:00Z,42.805,6.029,13.2993,4.60001,2470.087,2021-3-01T08:08:05Z
2021-03-01T06:10:03Z,42.805,6.029,13.2996,4.60003,2470.087,2021-3-01T08:11:08Z
2021-03-01T06:13:06Z,42.805,6.029,13.2991,4.60003,2470.087,2021-3-01T08:14:11Z
2021-03-01T06:16:09Z,42.805,6.029,13.2998,4.59999,2470.087,2021-3-01T08:17:14Z
2021-03-01T06:19:12Z,42.805,6.029,13.2993,4.60000,2470.11,2021-3-01T08:20:17Z
2021-03-01T06:22:16Z,42.805,6.029,13.2994,4.60000,2470.087,2021-3-01T08:23:21Z
2021-03-01T06:25:19Z,42.805,6.029,13.2993,4.59999,2470.11,2021-3-01T08:26:24Z
2021-03-01T06:28:22Z,42.805,6.029,13.2993,4.60001,2470.133,2021-3-01T08:29:27Z
2021-03-01T06:31:25Z,42.805,6.029,13.2990,4.59998,2470.124,2021-3-01T08:32:30Z
2021-03-01T06:34:28Z,42.805,6.029,13.2994,4.59999,2470.133,2021-3-01T08:35:33Z
2021-03-01T06:37:31Z,42.805,6.029,13.2988,4.59996,2470.124,2021-3-01T08:38:36Z
2021-03-01T06:40:34Z,42.805,6.029,13.2992,4.59997,2470.124,2021-3-01T08:41:39Z
2021-03-01T06:43:37Z,42.805,6.029,13.2989,4.59994,2470.11,2021-3-01T08:44:42Z
2021-03-01T06:46:41Z,42.805,6.029,13.2989,4.59994,2470.124,2021-3-01T08:47:46Z
2021-03-01T06:49:44Z,42.805,6.029,13.2988,4.59995,2470.147,2021-3-01T08:50:49Z
2021-03-01T06:52:47Z,42.805,6.029,13.2991,4.59994,2470.147,2021-3-01T08:53:52Z
2021-03-01T06:55:50Z,42.805,6.029,13.2986,4.59994,2470.156,2021-3-01T08:56:55Z
2021-03-01T06:58:53Z,42.805,6.029,13.2990,4.59996,2470.147,2021-3-01T08:59:58Z
2021-03-01T07:01:56Z,42.805,6.029,13.2986,4.59996,2470.147,2021-3-01T09:03:01Z
2021-03-01T07:04:59Z,42.805,6.029,13.2990,4.59996,2470.156,2021-3-01T09:06:04Z
2021-03-01T07:08:02Z,42.805,6.029,13.2993,4.59997,2470.171,2021-3-01T09:09:07Z
2021-03-01T07:11:05Z,42.805,6.029,13.2991,4.59998,2470.133,2021-3-01T09:12:10Z
2021-03-01T07:14:09Z,42.805,6.029,13.2990,4.59994,2470.156,2021-3-01T09:15:14Z
2021-03-01T07:17:12Z,42.805,6.029,13.2990,4.59995,2470.213,2021-3-01T09:18:17Z
2021-03-01T07:20:15Z,42.805,6.029,13.2990,4.59998,2470.194,2021-3-01T09:21:20Z
2021-03-01T07:23:18Z,42.805,6.029,13.2989,4.59995,2470.18,2021-3-01T09:24:23Z
2021-03-01T07:26:21Z,42.805,6.029,13.2989,4.59999,2470.203,2021-3-01T09:27:26Z
2021-03-01T07:29:24Z,42.805,6.029,13.2991,4.60000,2470.156,2021-3-01T09:30:29Z
2021-03-01T07:32:27Z,42.805,6.029,13.2993,4.60013,2470.156,2021-3-01T09:33:32Z
2021-03-01T07:35:30Z,42.805,6.029,13.2988,4.59996,2470.18,2021-3-01T09:36:35Z
2021-03-01T07:38:34Z,42.805,6.029,13.2988,4.59995,2470.18,2021-3-01T09:39:39Z
2021-03-01T07:41:37Z,42.805,6.029,13.2991,4.59997,2470.203,2021-3-01T09:42:42Z
2021-03-01T07:44:40Z,42.805,6.029,13.2993,4.60000,2470.203,2021-3-01T09:45:45Z
2021-03-01T07:47:43Z,42.805,6.029,13.2991,4.59999,2470.203,2021-3-01T09:48:48Z
2021-03-01T07:50:46Z,42.805,6.029,13.2991,4.59996,2470.203,2021-3-01T09:51:51Z
2021-03-01T07:53:49Z,42.805,6.029,13.2988,4.59997,2470.217,2021-3-01T09:54:54Z
2021-03-01T07:56:52Z,42.805,6.029,13.2986,4.59996,2470.203,2021-3-01T09:57:57Z
2021-03-01T07:59:55Z,42.805,6.029,13.2990,4.59999,2470.203,2021-3-01T10:01:00Z
2021-03-01T08:02:58Z,42.805,6.029,13.2991,4.59995,2470.194,2021-3-01T10:04:03Z
2021-03-01T08:06:02Z,42.805,6.029,13.2990,4.59996,2470.203,2021-3-01T10:07:07Z
2021-03-01T08:09:05Z,42.805,6.029,13.2987,4.59998,2470.203,2021-3-01T10:10:10Z
2021-03-01T08:12:08Z,42.805,6.029,13.2986,4.60005,2470.24,2021-3-01T10:13:13Z
2021-03-01T08:15:11Z,42.805,6.029,13.2987,4.59998,2470.217,2021-3-01T10:16:16Z
2021-03-01T08:18:14Z,42.805,6.029,13.2991,4.59999,2470.203,2021-3-01T10:19:19Z
2021-03-01T08:21:17Z,42.805,6.029,13.2993,4.60000,2470.217,2021-3-01T10:22:22Z
2021-03-01T08:24:20Z,42.805,6.029,13.2993,4.60000,2470.217,2021-3-01T10:25:25Z
2021-03-01T08:27:23Z,42.805,6.029,13.2993,4.60002,2470.24,2021-3-01T10:28:28Z
2021-03-01T08:30:27Z,42.805,6.029,13.2991,4.59999,2470.166,2021-3-01T10:31:32Z
2021-03-01T08:33:30Z,42.805,6.029,13.2991,4.60002,2470.217,2021-3-01T10:34:35Z
2021-03-01T08:36:33Z,42.805,6.029,13.2993,4.60000,2470.227,2021-3-01T10:37:38Z
2021-03-01T08:39:36Z,42.805,6.029,13.2992,4.60002,2470.217,2021-3-01T10:40:41Z
2021-03-01T08:42:39Z,42.805,6.029,13.2997,4.60001,2470.217,2021-3-01T10:43:44Z
2021-03-01T08:45:42Z,42.805,6.029,13.2991,4.60001,2470.203,2021-3-01T10:46:47Z
2021-03-01T08:48:45Z,42.805,6.029,13.2991,4.60000,2470.18,2021-3-01T10:49:50Z
2021-03-01T08:51:48Z,42.805,6.029,13.2993,4.60000,2470.217,2021-3-01T10:52:53Z
2021-03-01T08:54:52Z,42.805,6.029,13.2997,4.60006,2470.203,2021-3-01T10:55:57Z
2021-03-01T08:57:55Z,42.805,6.029,13.2995,4.60003,2470.194,2021-3-01T10:59:00Z
2021-03-01T09:00:58Z,42.805,6.029,13.2996,4.60003,2470.217,2021-3-01T11:02:03Z
2021-03-01T09:04:01Z,42.805,6.029,13.2994,4.60009,2470.203,2021-3-01T11:05:06Z
2021-03-01T09:07:04Z,42.805,6.029,13.2990,4.59999,2470.203,2021-3-01T11:08:09Z
2021-03-01T09:10:07Z,42.805,6.029,13.2993,4.60004,2470.156,2021-3-01T11:11:12Z
2021-03-01T09:13:10Z,42.805,6.029,13.2995,4.60009,2470.156,2021-3-01T11:14:15Z
2021-03-01T09:16:13Z,42.805,6.029,13.2990,4.59999,2470.156,2021-3-01T11:17:18Z
2021-03-01T09:19:17Z,42.805,6.029,13.2991,4.59998,2470.203,2021-3-01T11:20:22Z
2021-03-01T09:22:20Z,42.805,6.029,13.2994,4.59999,2470.203,2021-3-01T11:23:25Z
2021-03-01T09:25:23Z,42.805,6.029,13.2993,4.60001,2470.217,2021-3-01T11:26:28Z
2021-03-01T09:28:26Z,42.805,6.029,13.2999,4.60009,2470.203,2021-3-01T11:29:31Z
2021-03-01T09:31:29Z,42.805,6.029,13.2996,4.60005,2470.156,2021-3-01T11:32:34Z
2021-03-01T09:34:32Z,42.805,6.029,13.2994,4.60004,2470.18,2021-3-01T11:35:37Z
2021-03-01T09:37:35Z,42.805,6.029,13.2994,4.60001,2470.203,2021-3-01T11:38:40Z
2021-03-01T09:40:38Z,42.805,6.029,13.2993,4.60002,2470.18,2021-3-01T11:41:43Z
2021-03-01T09:43:42Z,42.805,6.029,13.2993,4.60001,2470.217,2021-3-01T11:44:47Z
2021-03-01T09:46:45Z,42.805,6.029,13.2990,4.60012,2470.194,2021-3-01T11:47:50Z
2021-03-01T09:49:48Z,42.805,6.029,13.2993,4.60000,2470.18,2021-3-01T11:50:53Z
2021-03-01T09:52:51Z,42.805,6.029,13.2991,4.59999,2470.194,2021-3-01T11:53:56Z
2021-03-01T09:55:54Z,42.805,6.029,13.2993,4.59999,2470.18,2021-3-01T11:56:59Z
2021-03-01T09:58:57Z,42.805,6.029,13.2994,4.60002,2470.156,2021-3-01T12:00:02Z
2021-03-01T10:02:00Z,42.805,6.029,13.2991,4.60002,2470.18,2021-3-01T12:03:05Z
2021-03-01T10:05:03Z,42.805,6.029,13.2994,4.60001,2470.189,2021-3-01T12:06:08Z
2021-03-01T10:08:07Z,42.805,6.029,13.2993,4.60001,2470.203,2021-3-01T12:09:12Z
2021-03-01T10:11:10Z,42.805,6.029,13.2991,4.60003,2470.156,2021-3-01T12:12:15Z
2021-03-01T10:14:13Z,42.805,6.029,13.2991,4.60001,2470.18,2021-3-01T12:15:18Z
2021-03-01T10:17:16Z,42.805,6.029,13.2996,4.60001,2470.18,2021-3-01T12:18:21Z
2021-03-01T10:20:19Z,42.805,6.029,13.2998,4.60004,2470.156,2021-3-01T12:21:24Z
2021-03-01T10:23:22Z,42.805,6.029,13.2994,4.60003,2470.143,2021-3-01T12:24:27Z
2021-03-01T10:26:25Z,42.805,6.029,13.2991,4.60003,2470.194,2021-3-01T12:27:30Z
2021-03-01T10:29:28Z,42.805,6.029,13.2996,4.60005,2470.156,2021-3-01T12:30:33Z
2021-03-01T10:32:32Z,42.805,6.029,13.2994,4.60003,2470.124,2021-3-01T12:33:37Z
2021-03-01T10:35:35Z,42.805,6.029,13.2993,4.60003,2470.194,2021-3-01T12:36:40Z
2021-03-01T10:38:38Z,42.805,6.029,13.2996,4.60009,2470.133,2021-3-01T12:39:43Z
2021-03-01T10:41:41Z,42.805,6.029,13.2992,4.60000,2470.156,2021-3-01T12:42:46Z
2021-03-01T10:44:44Z,42.805,6.029,13.2992,4.59999,2470.18,2021-3-01T12:45:49Z
2021-03-01T10:47:47Z,42.805,6.029,13.2996,4.60001,2470.171,2021-3-01T12:48:52Z
2021-03-01T10:50:50Z,42.805,6.029,13.2992,4.59999,2470.143,2021-3-01T12:51:55Z
2021-03-01T10:53:53Z,42.805,6.029,13.2996,4.60001,2470.156,2021-3-01T12:54:58Z
2021-03-01T10:56:57Z,42.805,6.029,13.2992,4.59999,2470.194,2021-3-01T12:58:02Z
2021-03-01T11:00:00Z,42.805,6.029,13.2992,4.60001,2470.171,2021-3-01T13:01:05Z
2021-03-01T11:03:03Z,42.805,6.029,13.2995,4.60009,2470.171,2021-3-01T13:04:08Z
2021-03-01T11:06:06Z,42.805,6.029,13.2994,4.60001,2470.156,2021-3-01T13:07:11Z
2021-03-01T11:09:09Z,42.805,6.029,13.2992,4.59997,2470.156,2021-3-01T13:10:14Z
2021-03-01T11:12:12Z,42.805,6.029,13.2993,4.59999,2470.171,2021-3-01T13:13:17Z
2021-03-01T11:15:15Z,42.805,6.029,13.2991,4.60000,2470.156,2021-3-01T13:16:20Z
2021-03-01T11:18:18Z,42.805,6.029,13.2989,4.59998,2470.133,2021-3-01T13:19:23Z
2021-03-01T11:21:22Z,42.805,6.029,13.2993,4.59999,2470.133,2021-3-01T13:22:27Z
2021-03-01T11:24:25Z,42.805,6.029,13.2993,4.59998,2470.11,2021-3-01T13:25:30Z
2021-03-01T11:27:28Z,42.805,6.029,13.2991,4.60000,2470.087,2021-3-01T13:28:33Z
2021-03-01T11:30:31Z,42.805,6.029,13.2991,4.59998,2470.11,2021-3-01T13:31:36Z
2021-03-01T11:33:34Z,42.805,6.029,13.2991,4.60008,2470.11,2021-3-01T13:34:39Z
2021-03-01T11:36:37Z,42.805,6.029,13.2993,4.59999,2470.124,2021-3-01T13:37:42Z
2021-03-01T11:39:40Z,42.805,6.029,13.2991,4.59999,2470.087,2021-3-01T13:40:45Z
2021-03-01T11:42:43Z,42.805,6.029,13.2993,4.59999,2470.11,2021-3-01T13:43:48Z
2021-03-01T11:45:47Z,42.805,6.029,13.2991,4.60001,2470.11,2021-3-01T13:46:52Z
2021-03-01T11:48:50Z,42.805,6.029,13.2990,4.59996,2470.087,2021-3-01T13:49:55Z
2021-03-01T11:51:53Z,42.805,6.029,13.2991,4.59996,2470.11,2021-3-01T13:52:58Z
2021-03-01T11:54:56Z,42.805,6.029,13.2993,4.59999,2470.133,2021-3-01T13:56:01Z
2021-03-01T11:57:59Z,42.805,6.029,13.2992,4.60003,2470.087,2021-3-01T13:59:04Z
2021-03-01T12:01:02Z,42.805,6.029,13.2993,4.59998,2470.087,2021-3-01T14:02:07Z
2021-03-01T12:04:05Z,42.805,6.029,13.2990,4.59999,2470.087,2021-3-01T14:05:10Z
2021-03-01T12:07:08Z,42.805,6.029,13.2990,4.59998,2470.063,2021-3-01T14:08:13Z
2021-03-01T12:10:11Z,42.805,6.029,13.2992,4.59997,2470.1,2021-3-01T14:11:17Z
2021-03-01T12:13:15Z,42.805,6.029,13.2993,4.59997,2470.063,2021-3-01T14:14:20Z
2021-03-01T12:16:18Z,42.805,6.029,13.2991,4.59999,2470.077,2021-3-01T14:17:23Z
2021-03-01T12:19:21Z,42.805,6.029,13.2987,4.59998,2470.063,2021-3-01T14:20:26Z
2021-03-01T12:22:24Z,42.805,6.029,13.2993,4.59996,2470.053,2021-3-01T14:23:29Z
2021-03-01T12:25:27Z,42.805,6.029,13.2991,4.59996,2470.063,2021-3-01T14:26:32Z
2021-03-01T12:28:30Z,42.805,6.029,13.2989,4.59998,2470.077,2021-3-01T14:29:35Z
2021-03-01T12:31:33Z,42.805,6.029,13.2991,4.59996,2470.063,2021-3-01T14:32:38Z
2021-03-01T12:34:36Z,42.805,6.029,13.2991,4.59998,2470.077,2021-3-01T14:35:41Z
2021-03-01T12:37:40Z,42.805,6.029,13.2991,4.59997,2470.04,2021-3-01T14:38:45Z
2021-03-01T12:40:43Z,42.805,6.029,13.2991,4.59997,2470.03,2021-3-01T14:41:48Z
2021-03-01T12:43:46Z,42.805,6.029,13.2990,4.59997,2470.03,2021-3-01T14:44:51Z
2021-03-01T12:46:49Z,42.805,6.029,13.2989,4.59999,2470.04,2021-3-01T14:47:54Z
2021-03-01T12:49:52Z,42.805,6.029,13.2990,4.59999,2470.04,2021-3-01T14:50:57Z
2021-03-01T12:52:55Z,42.805,6.029,13.2994,4.59996,2470.017,2021-3-01T14:54:00Z
2021-03-01T12:55:58Z,42.805,6.029,13.2993,4.59996,2470.053,2021-3-01T14:57:03Z
2021-03-01T12:59:01Z,42.805,6.029,13.2988,4.60001,2470.017,2021-3-01T15:00:06Z
2021-03-01T13:02:05Z,42.805,6.029,13.2992,4.59996,2470.053,2021-3-01T15:03:10Z
2021-03-01T13:05:08Z,42.805,6.029,13.2990,4.59998,2470.04,2021-3-01T15:06:13Z
2021-03-01T13:08:11Z,42.805,6.029,13.2993,4.59999,2470.04,2021-3-01T15:09:16Z
2021-03-01T13:11:14Z,42.805,6.029,13.2992,4.59998,2470.04,2021-3-01T15:12:19Z
2021-03-01T13:14:17Z,42.805,6.029,13.2993,4.60002,2470.017,2021-3-01T15:15:22Z
2021-03-01T13:17:20Z,42.805,6.029,13.2990,4.59999,2470.053,2021-3-01T15:18:25Z
2021-03-01T13:20:23Z,42.805,6.029,13.2990,4.59997,2470.04,2021-3-01T15:21:28Z
2021-03-01T13:23:26Z,42.805,6.029,13.2991,4.59996,2469.993,2021-3-01T15:24:31Z
2021-03-01T13:26:30Z,42.805,6.029,13.2993,4.59999,2469.993,2021-3-01T15:27:35Z
2021-03-01T13:29:33Z,42.805,6.029,13.2991,4.59999,2470.017,2021-3-01T15:30:38Z
2021-03-01T13:32:36Z,42.805,6.029,13.2993,4.59999,2469.993,2021-3-01T15:33:41Z
2021-03-01T13:35:39Z,42.805,6.029,13.2991,4.59996,2470.017,2021-3-01T15:36:44Z
2021-03-01T13:38:42Z,42.805,6.029,13.2985,4.59997,2469.984,2021-3-01T15:39:47Z
2021-03-01T13:41:45Z,42.805,6.029,13.2989,4.59995,2470.03,2021-3-01T15:42:50Z
2021-03-01T13:44:48Z,42.805,6.029,13.2990,4.59996,2470.03,2021-3-01T15:45:53Z
2021-03-01T13:47:51Z,42.805,6.029,13.2991,4.59997,2470.007,2021-3-01T15:48:56Z
2021-03-01T13:50:55Z,42.805,6.029,13.2989,4.59996,2469.993,2021-3-01T15:52:00Z
2021-03-01T13:53:58Z,42.805,6.029,13.2993,4.59998,2469.97,2021-3-01T15:55:03Z
2021-03-01T13:57:01Z,42.805,6.029,13.2986,4.59998,2469.984,2021-3-01T15:58:06Z
2021-03-01T14:00:04Z,42.805,6.029,13.2993,4.59999,2470.007,2021-3-01T16:01:09Z
2021-03-01T14:03:07Z,42.805,6.029,13.2992,4.59994,2469.984,2021-3-01T16:04:12Z
2021-03-01T14:06:10Z,42.805,6.029,13.2991,4.59996,2469.96,2021-3-01T16:07:15Z
2021-03-01T14:09:13Z,42.805,6.029,13.2988,4.59996,2469.97,2021-3-01T16:10:18Z
2021-03-01T14:12:16Z,42.805,6.029,13.2991,4.59999,2469.97,2021-3-01T16:13:21Z
2021-03-01T14:15:19Z,42.805,6.029,13.2991,4.59999,2469.984,2021-3-01T16:16:24Z
2021-03-01T14:18:23Z,42.805,6.029,13.2992,4.59999,2469.947,2021-3-01T16:19:28Z
2021-03-01T14:21:26Z,42.805,6.029,13.2993,4.59996,2469.97,2021-3-01T16:22:31Z
2021-03-01T14:24:29Z,42.805,6.029,13.2995,4.59997,2470.007,2021-3-01T16:25:34Z
2021-03-01T14:27:32Z,42.805,6.029,13.2991,4.60000,2469.947,2021-3-01T16:28:37Z
2021-03-01T14:30:35Z,42.805,6.029,13.2990,4.60001,2469.984,2021-3-01T16:31:40Z
2021-03-01T14:33:38Z,42.805,6.029,13.2987,4.59994,2469.947,2021-3-01T16:34:43Z
2021-03-01T14:36:41Z,42.805,6.029,13.2991,4.59996,2469.923,2021-3-01T16:37:46Z
2021-03-01T14:39:44Z,42.805,6.029,13.2990,4.59995,2469.97,2021-3-01T16:40:50Z
2021-03-01T14:42:48Z,42.805,6.029,13.2996,4.59997,2469.937,2021-3-01T16:43:53Z
2021-03-01T14:45:51Z,42.805,6.029,13.2987,4.59996,2469.923,2021-3-01T16:46:56Z
2021-03-01T14:48:54Z,42.805,6.029,13.2990,4.59999,2469.96,2021-3-01T16:49:59Z
2021-03-01T14:51:57Z,42.805,6.029,13.2986,4.59997,2469.947,2021-3-01T16:53:02Z
2021-03-01T14:55:00Z,42.805,6.029,13.2988,4.59996,2469.923,2021-3-01T16:56:05Z
2021-03-01T14:58:03Z,42.805,6.029,13.2990,4.59996,2469.96,2021-3-01T16:59:08Z
2021-03-01T15:01:06Z,42.805,6.029,13.2989,4.59995,2469.914,2021-3-01T17:02:11Z
2021-03-01T15:04:09Z,42.805,6.029,13.2990,4.59996,2469.923,2021-3-01T17:05:14Z
2021-03-01T15:07:13Z,42.805,6.029,13.2991,4.59998,2469.9,2021-3-01T17:08:18Z
2021-03-01T15:10:16Z,42.805,6.029,13.2991,4.59995,2469.923,2021-3-01T17:11:21Z
2021-03-01T15:13:19Z,42.805,6.029,13.2986,4.59995,2469.9,2021-3-01T17:14:24Z